一网星座-0300星 (ONEWEB-0300 )

导读 | 星芒AI

ONEWE-0300 是 OneWeb 卫星通信星座计划中的一颗低轨通信卫星,旨在为全球提供高速互联网接入服务。该卫星由空中客车防务与航天公司制造,采用标准化设计以提高部署效率。它运行在约 1200 公里的近地轨道,支持宽带通信,主要服务于航空、海运及偏远地区用户。作为 OneWeb 计划的一部分,该卫星有助于构建覆盖全球的卫星互联网网络,增强数字连接能力。

基本信息
目录编号:
49089
目录名称:
ONEWEB-0300
国际标识:
2021-075Q
轨道中心:
EARTH
卫星名称:
一网星座-0300星
卫星全名:
一网星座-0300星 (ONEWEB-0300 )
卫星状态:
在轨 (已飞行1577 天)
发射日期:
2021-08-21 UTC
国别 :
英国 (GB)
星等 :
--
轨道信息
数据来源 国际轨道数据
星历时间: 2025-12-14T22:38:34+0800
1天前
查看轨道信息
半长轴: 7592.031km
偏心率: 0.0002084
轨道倾角: 87.894°
近地点辐角 99.372°
升交点赤经 27.317°
平近点角 260.764°
近地点: 1212.313km
远地点: 1215.479km
周期: 109.723分钟
每日圈数: 13.123988
详细信息
平衡模式:
三轴稳定
覆盖范围:
全球
运营商:
一网卫星公司
运营商所在国:
英国
制造商(研发单位):
一网卫星公司
制造商所在国:
英国
使用方式:
暂无
卫星简介
OneWeb卫星网络由648颗重约125公斤的微型卫星组成,运行在1200公里的轨道上。 每颗卫星都能够提供至少每秒8千兆位的吞吐量,以使用其高吞吐量的Ku频段有效载荷为家庭和移动平台提供互联网接入。该卫星仍在工作。
2D轨道图
3D轨道图
轨道高度分析图
轨道倾角分析图
轨道综合分析图
查看轨道综合分析图